GFSNE_con_3kmhel_120.txt.gz
Helicity
100 104 91 89 95 93 98 103 102 55 -4 47 29 49 53 33 6 20 77 214 239 323 457 450 331 132 104 128 136 111 100 127 145 142 203 210 226 153
83 97 96 94 105 112 106 103 96 102 80 86 51 36 35 28 13 -8 2 4 153 327 379 514 484 303 156 148 141 137 120 133 151 146 161 194 166 175
96 98 95 91 93 93 95 95 96 105 83 78 62 33 23 9 3 25 4 -5 -5 28 108 134 387 407 488 277 127 118 134 144 191 208 157 146 106 108
96 108 108 107 107 105 104 99 96 92 72 44 50 27 18 3 -1 -12 -9 -13 -25 27 78 65 390 373 553 464 396 133 135 167 192 170 129 118 134 121
74 78 74 78 80 87 97 94 96 88 82 60 37 25 7 -18 -2 -36 -29 -26 17 74 58 83 109 204 426 480 506 434 310 208 218 190 150 172 163 134
85 86 80 77 71 75 75 78 79 69 54 57 46 27 4 -2 -27 -40 -33 -47 -19 16 23 109 117 39 199 418 314 324 336 340 344 151 176 157 148 162
83 78 78 66 54 55 65 62 67 57 52 44 36 31 16 -3 -31 -60 -43 -63 -38 -113 -54 -12 38 23 -61 43 174 285 269 263 341 306 274 123 123 140
94 82 62 51 64 74 76 83 97 87 71 64 60 47 26 16 4 -18 -47 -67 -111 -73 -74 -5 -23 43 2 -66 35 158 305 349 319 305 295 252 156 122
84 70 72 83 88 91 85 98 108 103 115 117 98 78 56 43 27 14 -21 -59 -51 -33 -94 -93 -9 -17 3 72 61 -18 39 161 219 255 287 264 248 154
74 77 84 92 98 92 116 125 129 121 133 154 159 126 96 57 41 24 11 1 -32 -39 -76 -161 -54 -99 1 77 94 119 92 49 188 257 226 230 222 191
82 90 92 94 71 73 111 120 126 111 119 107 111 107 95 80 60 40 17 0 -16 -50 -46 -188 -119 -100 -31 75 28 130 180 185 120 134 200 257 215 177
83 99 76 89 76 74 108 115 119 121 135 123 135 126 100 76 66 65 34 -1 -17 -47 -41 -88 -101 -149 -166 -40 84 44 49 116 227 148 117 172 191 123
87 95 111 74 69 73 78 121 126 116 119 158 139 123 102 94 84 78 72 50 15 15 0 -34 -104 -70 -117 -56 2 95 53 72 83 143 196 181 211 71
95 108 119 62 64 72 94 76 63 94 164 140 136 130 115 98 94 94 85 82 73 33 23 6 -53 -77 -51 -34 7 76 101 97 82 101 159 238 232 99
110 102 58 81 81 109 77 59 85 141 147 147 139 121 122 118 106 95 86 73 61 57 46 33 -14 -48 -75 -52 11 92 88 67 153 122 134 189 230 112
94 118 96 111 96 86 104 117 134 136 140 137 128 117 112 106 103 103 85 64 49 48 44 23 0 -52 -49 -58 -27 88 76 83 135 172 147 157 223 295
75 132 144 132 119 121 124 125 128 135 135 137 131 117 110 109 110 104 96 73 49 40 43 51 28 -23 -38 -43 -12 54 75 104 110 179 129 138 165 209
105 145 135 144 135 127 129 131 131 116 138 139 137 120 135 121 98 94 92 101 64 47 45 50 30 -26 -24 -15 -77 48 86 103 129 159 156 130 147 142
126 143 156 154 148 140 141 148 154 149 139 149 147 151 149 119 80 97 84 71 62 61 79 49 21 -19 -17 -3 12 49 69 75 81 127 138 135 150 140
143 157 159 156 152 152 154 158 159 158 156 156 158 162 158 138 115 121 71 63 55 56 66 37 31 11 -3 3 -3 45 78 51 73 99 124 132 154 147
128 135 148 156 159 158 164 167 172 172 142 157 177 181 171 156 117 110 90 27 26 47 21 33 33 -4 10 3 5 37 89 57 39 78 99 128 149 152
132 141 141 149 149 155 158 161 174 175 168 170 167 162 161 159 118 100 76 46 28 26 28 30 32 21 -4 -3 31 38 53 70 44 38 46 69 119 133
122 126 133 142 148 161 168 175 197 204 196 187 176 159 161 137 119 90 60 52 8 17 -1 -7 -1 6 3 11 16 43 57 67 69 61 53 60 67 102

GFSNE_con_3kmhel_123.txt.gz
Helicity
93 93 83 80 79 79 75 51 11 -18 9 35 41 47 32 27 63 65 53 61 120 125 129 160 225 125 84 146 379 260 136 119 105 95 102 139 148 148
72 72 74 76 83 89 94 94 98 95 104 89 74 51 37 16 23 39 45 46 62 102 118 152 182 186 188 249 331 501 346 110 101 103 95 93 116 142
77 77 81 84 93 96 99 97 98 97 87 64 49 50 37 34 35 30 22 47 52 107 129 123 156 155 164 246 464 387 598 422 163 115 97 84 116 164
77 69 71 72 87 88 94 95 93 95 84 57 46 47 42 32 28 36 20 15 26 62 120 94 124 128 153 151 323 468 575 737 532 296 90 102 110 167
84 86 81 80 81 82 83 81 77 75 77 71 55 45 36 38 21 7 12 12 2 44 32 71 123 99 92 122 46 185 418 383 633 532 350 96 133 121
83 83 82 78 74 68 59 56 57 61 63 60 50 36 36 40 23 10 9 -2 18 7 7 65 94 107 75 79 129 31 238 302 262 599 642 549 165 265
95 84 83 75 44 44 57 56 54 53 51 52 56 54 46 34 31 28 14 8 -8 -20 1 27 43 69 63 64 32 140 96 146 232 299 492 581 569 143
106 99 94 51 47 55 55 53 59 72 76 85 74 60 48 49 43 41 29 15 -33 -27 -32 20 -6 58 36 24 123 195 122 55 149 165 114 380 616 465
107 106 77 65 60 66 59 59 73 70 81 91 78 75 72 67 64 57 71 58 37 33 -14 -58 -24 -23 11 59 134 131 125 124 133 223 193 92 320 335
112 93 63 54 68 66 64 79 86 84 92 109 103 93 90 91 98 113 96 85 75 37 -5 -79 -68 -67 8 45 82 80 121 108 183 116 206 233 276 258
111 75 58 52 49 33 75 93 85 79 83 64 61 59 73 80 103 132 138 143 83 52 18 -79 -89 -94 -64 -11 18 108 156 115 114 168 146 142 235 330
91 66 52 56 53 59 98 108 103 88 71 67 79 91 91 85 76 116 131 140 112 34 43 -45 -56 -102 -208 -96 3 60 93 119 110 174 153 77 118 77
81 61 66 50 46 59 68 109 115 90 85 99 104 101 100 99 102 101 106 122 124 109 53 36 -12 -37 -88 -129 -57 29 55 100 100 87 131 157 135 105
83 65 63 40 43 47 75 81 62 82 123 119 115 108 105 95 94 86 84 96 108 104 74 75 66 2 -47 -74 -63 12 61 96 59 99 92 127 190 199
89 62 32 46 46 82 89 66 74 114 113 116 111 104 98 93 84 86 84 86 98 95 96 75 61 24 -7 -52 -49 29 32 75 131 67 121 121 161 158
72 82 73 61 69 88 100 105 116 116 116 110 109 104 95 90 85 84 94 97 100 87 94 72 48 31 4 -22 -46 27 5 24 125 161 140 162 151 131
52 90 102 100 98 103 109 111 111 110 113 117 121 114 104 100 98 98 84 79 87 79 79 85 53 26 5 -24 -28 -2 -16 26 53 143 154 156 166 143
86 115 94 97 104 107 117 114 107 98 110 119 124 124 124 121 105 83 77 76 78 67 58 45 36 22 1 -23 -71 -20 -29 13 61 109 139 122 183 155
107 97 98 101 108 116 123 125 126 114 128 146 147 147 143 135 93 96 88 87 82 58 44 39 33 15 -2 4 6 -17 -31 6 37 82 110 121 166 207
102 101 96 103 110 120 127 129 119 134 146 150 157 159 163 156 128 108 91 101 79 63 38 26 43 25 2 -1 20 59 60 6 37 87 140 112 130 198
93 97 102 109 113 121 125 118 124 142 134 161 173 173 169 164 146 128 113 73 53 50 35 19 38 18 20 -2 -1 50 89 47 18 79 115 133 155 168
91 87 87 99 109 124 116 114 129 137 152 172 180 187 174 150 146 137 115 87 65 58 46 14 -0 12 -7 -15 11 33 60 79 43 74 79 127 134 122
79 79 81 92 115 116 120 115 130 146 156 177 187 189 174 161 145 125 107 90 68 64 52 36 7 -5 -30 -10 -6 21 52 106 61 46 39 63 104 108

GFSNE_con_3kmhel_126.txt.gz
Helicity
99 100 100 94 82 77 66 55 56 46 67 73 81 64 67 64 70 89 99 114 101 111 141 152 166 169 160 157 161 183 128 112 167 315 294 128 84 84
97 102 104 97 87 76 69 68 75 80 88 82 73 60 56 46 47 47 60 62 83 93 104 128 111 132 136 131 136 141 152 109 139 216 357 339 145 77
99 105 106 103 100 94 89 86 95 98 95 61 64 60 56 52 50 44 39 38 40 57 76 100 72 110 130 127 131 129 155 162 136 234 332 395 302 195
95 100 94 97 95 92 96 95 94 92 84 66 59 56 53 41 41 33 28 27 27 27 52 49 44 91 86 101 105 120 127 139 147 216 323 378 441 287
94 94 96 99 93 91 89 93 95 79 71 67 59 51 43 39 41 44 45 44 38 42 35 32 52 90 83 65 71 99 131 140 114 154 346 459 482 483
100 97 98 102 93 93 94 78 71 60 59 66 53 45 48 52 58 44 34 38 45 45 22 26 48 63 69 68 52 70 123 215 92 97 113 452 420 496
100 103 100 93 81 81 80 63 59 57 62 48 59 67 63 64 55 42 46 53 30 30 43 49 35 28 29 49 42 106 110 125 130 143 131 182 259 328
105 116 103 91 88 76 50 42 47 60 63 72 78 81 74 75 74 88 83 71 66 46 72 56 32 27 21 17 54 97 96 67 102 118 126 110 122 306
116 116 114 116 103 68 47 38 48 56 73 93 98 91 79 71 86 75 82 89 93 90 83 84 59 45 36 30 53 51 36 68 99 88 114 115 121 124
112 110 108 108 96 66 44 51 66 72 79 108 114 111 99 93 95 97 105 94 100 93 91 120 78 69 48 49 32 18 9 89 61 91 88 123 123 161
115 114 108 103 61 42 43 50 55 76 79 83 74 64 63 66 82 125 122 127 123 111 104 89 87 99 75 43 0 26 70 41 78 70 107 108 98 129
116 111 97 93 60 45 64 67 71 76 107 94 81 75 79 87 84 101 121 137 133 131 90 117 102 77 28 15 0 -13 13 61 60 103 105 82 100 22
121 110 113 77 50 42 45 78 83 91 84 91 94 92 85 89 103 117 128 149 152 145 100 105 103 94 89 21 1 -15 -19 -5 24 44 73 103 89 113
109 112 102 57 37 34 45 50 60 75 100 115 121 111 109 107 102 101 105 118 123 116 105 98 127 107 83 29 -18 -8 1 3 -6 46 42 71 159 140
129 107 54 30 39 49 46 52 52 84 110 125 122 113 110 115 115 109 99 82 95 97 93 87 105 100 104 46 1 8 -2 43 15 -23 44 69 82 86
103 109 72 52 42 55 60 70 91 107 124 127 115 105 121 130 129 113 113 106 103 91 68 70 88 98 76 52 22 14 28 13 37 22 24 58 86 75
100 105 75 78 72 75 81 86 95 106 114 105 117 127 131 136 141 126 113 106 104 86 72 72 93 97 78 43 18 5 -2 -5 -12 0 11 52 93 86
109 99 70 74 77 79 88 92 97 98 96 110 124 140 143 153 149 125 115 109 105 93 83 76 84 75 50 35 15 5 -18 -15 -27 -3 16 40 117 102
119 86 74 85 84 90 98 100 95 80 79 106 129 140 147 168 129 131 120 112 101 92 92 81 77 74 27 -6 18 -13 -11 9 10 1 11 18 77 132
106 73 84 87 87 93 93 95 91 78 91 111 122 135 149 155 142 131 124 122 117 108 96 81 79 90 86 25 14 5 2 5 -1 14 44 27 60 133
86 78 89 82 84 88 92 95 86 71 80 101 116 127 120 131 135 131 131 99 103 113 105 79 52 27 48 35 27 33 1 -1 16 -3 33 47 85 116
67 81 81 81 80 82 90 92 78 61 75 95 110 122 134 123 132 128 129 130 119 108 90 61 32 19 30 82 10 13 15 29 37 26 20 45 79 118
66 74 70 69 74 79 89 89 68 62 80 99 114 116 121 147 130 116 128 132 123 98 66 45 27 29 43 40 3 7 19 40 48 38 28 26 38 77

GFSNE_con_3kmhel_129.txt.gz
Helicity
89 94 102 115 112 111 114 100 89 65 61 99 94 120 95 63 60 72 91 110 112 110 123 135 150 124 117 129 117 109 113 121 118 115 142 170 191 208
94 102 111 115 108 114 106 103 107 101 91 94 79 80 70 64 50 60 61 70 76 85 101 109 121 107 117 134 114 102 101 98 102 118 127 148 165 194
81 99 108 116 115 107 107 100 104 113 96 64 66 66 59 60 51 41 28 35 46 66 76 91 82 68 78 90 86 72 76 91 102 99 111 140 141 168
71 88 96 118 118 120 113 103 105 101 108 74 79 62 53 53 55 54 48 30 29 16 58 59 69 66 79 82 76 66 50 67 86 104 74 105 137 133
70 77 95 115 117 121 119 110 116 114 106 89 70 58 54 54 50 53 64 75 73 90 81 42 32 59 76 66 55 55 53 86 61 67 88 120 202 255
81 81 99 120 126 133 122 118 111 118 93 76 96 65 56 45 46 60 68 62 57 56 49 40 55 64 53 71 83 65 67 88 72 41 61 78 111 120
88 93 111 129 142 113 127 120 129 109 90 80 76 80 67 51 64 71 64 67 37 20 20 23 59 62 72 88 83 73 97 97 69 74 68 57 72 91
87 101 117 133 106 91 95 84 89 87 75 81 86 78 71 81 93 99 100 63 48 37 56 50 55 76 69 55 64 85 111 105 83 84 85 81 50 56
106 127 126 126 135 118 94 86 55 33 39 75 85 86 80 99 98 94 93 96 90 77 55 53 58 69 66 60 63 94 90 85 83 114 88 86 67 62
117 123 131 117 119 120 122 109 82 78 76 89 103 104 100 97 104 106 107 106 104 92 76 79 67 87 67 91 99 88 57 77 111 98 109 80 91 55
113 123 132 110 97 93 120 101 83 71 52 30 52 55 37 26 56 116 130 128 115 101 102 94 84 79 93 88 69 52 73 100 84 125 110 123 75 51
137 148 89 89 77 84 120 104 85 72 75 86 88 76 63 99 88 118 132 134 122 115 88 94 110 89 53 55 53 78 64 60 71 81 113 116 91 -41
163 171 125 72 87 89 74 93 81 74 79 91 91 89 114 121 120 130 138 147 147 150 119 139 140 116 135 111 80 75 69 58 67 67 73 84 76 54
135 158 118 91 104 74 62 47 44 63 104 105 106 119 123 124 127 134 147 163 151 133 107 105 140 116 107 100 89 49 55 65 52 57 44 27 90 70
149 130 74 75 61 76 52 49 57 97 107 117 121 121 121 118 135 136 149 148 147 141 122 113 130 114 118 105 81 51 34 43 45 21 48 35 30 27
148 124 91 80 64 70 60 81 108 108 114 121 118 107 106 121 142 148 162 166 171 166 154 131 126 131 142 140 122 59 41 35 45 28 11 27 36 11
138 135 126 115 111 92 83 98 101 108 116 119 111 102 115 138 160 170 181 166 178 161 143 128 112 109 128 127 113 93 52 34 30 20 -10 1 53 42
139 133 123 117 109 71 91 93 104 106 116 118 104 107 135 152 161 155 168 180 176 166 154 122 101 115 103 107 104 93 67 29 28 13 -4 -11 34 43
137 122 130 122 91 97 100 97 93 95 97 104 91 108 132 147 126 142 147 154 168 177 167 136 118 125 120 99 82 34 18 10 -3 9 -2 -12 -6 56
115 128 129 120 92 100 94 85 92 97 105 93 82 101 134 147 156 167 159 153 162 173 174 164 153 151 171 131 91 76 70 -12 7 8 -13 -1 -11 45
124 139 135 100 97 92 79 89 88 96 96 83 82 93 108 130 139 153 166 109 107 157 175 171 149 73 87 86 124 126 124 91 -29 -3 -9 -9 21 62
127 122 109 92 93 79 81 83 89 90 87 67 74 86 96 118 131 139 162 182 192 198 197 174 132 105 96 101 106 93 61 15 9 10 -10 -19 22 94
114 118 87 82 74 77 80 82 85 91 81 63 69 79 99 115 142 167 174 177 177 174 175 161 145 122 110 98 62 64 68 26 19 45 53 -0 -2 50